Weather History for Bluefield, WV

Change the Weather History Date:

Tuesday, May 8, 2012

  Actual Average Record
Temperature  
Mean Temperature 68 °F 61 °F  
Max Temperature 75 °F 71 °F 84 °F (2004)
Min Temperature 61 °F 51 °F 32 °F (1989)
Degree Days  
Heating Degree Days 0 5  
Month to date heating degree days 0 49  
Since 1 July heating degree days 3558 4479  
Cooling Degree Days 3 1  
Month to date cooling degree days 44 8  
Year to date cooling degree days 89 36  
Growing Degree Days 18 (Base 50)    
Moisture  
Dew Point 58 °F    
Average Humidity 72    
Maximum Humidity 90    
Minimum Humidity 54    
Precipitation  
Precipitation 0.09 in 0.14 in 1.61 in (1965)
Month to date precipitation 0.84 1.05  
Year to date precipitation 18.28 13.56  
Snow  
Snow 0.00 in - - ()
Month to date snowfall 0.0  
Since 1 July snowfall 23.0  
Snow Depth 0.00 in    
Sea Level Pressure  
Sea Level Pressure 29.90 in    
Wind  
Wind Speed 8 mph (SW)    
Max Wind Speed 18 mph    
Max Gust Speed 28 mph    
Visibility 10 miles    
Events Rain    
T = Trace of Precipitation, MM = Missing Value Source: NWS Daily Summary

Daily Weather History Graph

Daily Weather History Graph

Search for Another Location

Airport:

Trip Planner

Search our weather history database for the weather conditions in past years. The results will help you decide how hot, cold, wet, or windy it might be!

Date:

Astronomy

May. 08, 2012 Rise Set
Actual Time 6:22 AM EDT 8:21 PM EDT
Civil Twilight 5:53 AM EDT 8:49 PM EDT
Nautical Twilight 5:18 AM EDT 9:24 PM EDT
Astronomical Twilight 4:41 AM EDT 10:02 PM EDT
Moon 11:28 PM EDT (5/8) 8:30 AM EDT (5/8)
Length of Visible Light 14h 56m
Length of Day
13h 59m
Waning Gibbous, 91% of the Moon is Illuminated
May 8
Waning Gibbous
May 12
Last Quarter
May 20
New
May 28
First Quarter
Jun 4
Full

Hourly Weather History & Observations

Time (EDT) Temp. Dew Point Humidity Pressure Visibility Wind Dir Wind Speed Gust Speed Precip Events Conditions
12:37 AM 64.4 °F 55.4 °F 73% 30.01 in 10.0 mi South 8.1 mph 23.0 mph N/A   Overcast
12:52 AM 64.9 °F 55.0 °F 70% 29.90 in 10.0 mi South 15.0 mph 25.3 mph N/A   Overcast
1:32 AM 64.4 °F 53.6 °F 68% 29.99 in 10.0 mi South 12.7 mph 23.0 mph N/A   Overcast
1:41 AM 64.4 °F 53.6 °F 68% 29.99 in 10.0 mi South 8.1 mph 23.0 mph N/A   Mostly Cloudy
1:52 AM 64.0 °F 53.1 °F 67% 29.87 in 10.0 mi SSE 10.4 mph 20.7 mph N/A   Scattered Clouds
2:52 AM 64.0 °F 53.1 °F 67% 29.85 in 10.0 mi South 12.7 mph 27.6 mph N/A   Mostly Cloudy
3:52 AM 64.0 °F 54.0 °F 70% 29.86 in 10.0 mi South 9.2 mph - N/A   Mostly Cloudy
4:32 AM 64.4 °F 53.6 °F 68% 29.95 in 10.0 mi SSW 9.2 mph - N/A   Mostly Cloudy
4:45 AM 64.4 °F 53.6 °F 68% 29.95 in 10.0 mi South 8.1 mph - N/A   Mostly Cloudy
4:52 AM 64.0 °F 54.0 °F 70% 29.85 in 10.0 mi South 6.9 mph - N/A   Scattered Clouds
5:30 AM 64.4 °F 55.4 °F 73% 29.95 in 10.0 mi SSW 6.9 mph - N/A   Overcast
5:52 AM 64.0 °F 55.0 °F 73% 29.86 in 10.0 mi South 8.1 mph - N/A   Overcast
6:33 AM 64.4 °F 55.4 °F 73% 29.96 in 10.0 mi SSW 8.1 mph 20.7 mph N/A   Overcast
6:52 AM 64.0 °F 55.9 °F 75% 29.86 in 10.0 mi South 8.1 mph - N/A   Overcast
7:08 AM 64.4 °F 55.4 °F 73% 29.96 in 10.0 mi Variable 5.8 mph - N/A   Overcast
7:52 AM 63.0 °F 57.0 °F 81% 29.88 in 10.0 mi South 9.2 mph - 0.00 in   Overcast
8:23 AM 62.6 °F 57.2 °F 82% 29.96 in 10.0 mi South 6.9 mph - 0.00 in   Overcast
8:52 AM 64.0 °F 57.9 °F 80% 29.88 in 10.0 mi South 8.1 mph - 0.00 in   Overcast
9:43 AM 66.2 °F 57.2 °F 73% 29.96 in 10.0 mi Variable 6.9 mph 16.1 mph 0.00 in   Overcast
9:52 AM 66.0 °F 57.0 °F 73% 29.87 in 10.0 mi SSW 5.8 mph - 0.00 in   Overcast
10:52 AM 66.0 °F 57.9 °F 75% 29.88 in 10.0 mi SSW 6.9 mph - N/A   Overcast
11:52 AM 64.9 °F 61.0 °F 87% 29.88 in 10.0 mi WSW 4.6 mph - 0.04 in Rain Light Rain
12:06 PM 69.8 °F 62.6 °F 78% 29.96 in 10.0 mi WSW 8.1 mph - 0.00 in   Mostly Cloudy
12:35 PM 71.6 °F 60.8 °F 69% 29.95 in 10.0 mi WSW 8.1 mph - 0.00 in   Mostly Cloudy
12:52 PM 72.0 °F 59.0 °F 64% 29.85 in 10.0 mi WSW 11.5 mph - 0.00 in   Mostly Cloudy
1:52 PM 75.0 °F 57.0 °F 53% 29.82 in 10.0 mi WSW 13.8 mph 23.0 mph N/A   Scattered Clouds
2:52 PM 72.0 °F 59.0 °F 64% 29.82 in 10.0 mi West 5.8 mph - 0.00 in Rain Light Rain
3:52 PM 66.0 °F 61.0 °F 84% 29.83 in 7.0 mi NW 9.2 mph 19.6 mph 0.01 in Rain Light Rain
4:47 PM 66.2 °F 60.8 °F 83% 29.90 in 7.0 mi WSW 5.8 mph - 0.01 in Rain Light Rain
4:52 PM 66.9 °F 61.0 °F 81% 29.82 in 7.0 mi WSW 11.5 mph 17.3 mph 0.01 in Rain Light Rain
5:27 PM 68.0 °F 62.6 °F 83% 29.90 in 10.0 mi West 8.1 mph 17.3 mph 0.00 in   Overcast
6:19 PM 62.6 °F 57.2 °F 82% 29.92 in 7.0 mi West 6.9 mph - 0.03 in Rain Light Rain
6:52 PM 63.0 °F 57.9 °F 84% 29.84 in 10.0 mi West 6.9 mph - 0.03 in   Mostly Cloudy
7:18 PM 64.4 °F 59.0 °F 83% 29.93 in 10.0 mi West 8.1 mph - N/A   Overcast
7:25 PM 64.4 °F 59.0 °F 83% 29.93 in 10.0 mi West 8.1 mph - N/A   Overcast
7:37 PM 64.4 °F 60.8 °F 88% 29.93 in 10.0 mi West 8.1 mph - N/A   Overcast
7:45 PM 64.4 °F 60.8 °F 88% 29.93 in 10.0 mi West 6.9 mph - N/A   Overcast
7:52 PM 64.0 °F 59.0 °F 84% 29.85 in 10.0 mi West 6.9 mph - N/A   Overcast
7:57 PM 64.4 °F 59.0 °F 83% 29.93 in 10.0 mi WNW 5.8 mph - N/A   Overcast
8:52 PM 63.0 °F 59.0 °F 87% 29.85 in 10.0 mi West 5.8 mph - 0.00 in   Overcast
9:25 PM 62.6 °F 59.0 °F 88% 29.94 in 10.0 mi West 5.8 mph - N/A   Mostly Cloudy
9:52 PM 62.1 °F 59.0 °F 90% 29.86 in 10.0 mi West 5.8 mph - N/A   Overcast
10:20 PM 62.6 °F 59.0 °F 88% 29.95 in 10.0 mi West 9.2 mph - N/A   Overcast
10:52 PM 62.1 °F 57.9 °F 86% 29.88 in 10.0 mi West 6.9 mph - N/A   Overcast
11:12 PM 60.8 °F 57.2 °F 88% 29.96 in 10.0 mi West 6.9 mph - N/A   Scattered Clouds
11:52 PM 61.0 °F 57.0 °F 87% 29.89 in 10.0 mi West 5.8 mph - N/A   Mostly Cloudy